<?xml version="1.0" encoding="utf-8"?>
<gpx xmlns:xsi="http://www.w3.org/2001/XMLSchema-instance" xmlns:xsd="http://www.w3.org/2001/XMLSchema" version="1.1" creator="Shapelink.com" xmlns="http://www.topografix.com/GPX/1/1" xmlns:gpxtpx="http://www.garmin.com/xmlschemas/TrackPointExtension/v1">
  <metadata>
    <name>Gåing 1.33 km, 2013-07-24</name>
    <desc></desc>
    <author><name>Alexander Engvall</name></author> 
    <time>1970-01-01T01:00:00Z</time>
  </metadata>
  <trk>
    <name>Gåing 1.33 km, 2013-07-24</name>
    <trkseg>
      <trkpt lat="62.540511" lon="14.135534">
        <ele>437.714</ele>
        <time>1970-01-01T01:00:00Z</time>
      </trkpt>
      <trkpt lat="62.540518" lon="14.135352">
        <ele>438</ele>
        <time>1970-01-01T01:00:00Z</time>
      </trkpt>
      <trkpt lat="62.540488" lon="14.135184">
        <ele>438.222</ele>
        <time>1970-01-01T01:00:00Z</time>
      </trkpt>
      <trkpt lat="62.540532" lon="14.135013">
        <ele>438.4</ele>
        <time>1970-01-01T01:00:00Z</time>
      </trkpt>
      <trkpt lat="62.540543" lon="14.134838">
        <ele>438.545</ele>
        <time>1970-01-01T01:00:00Z</time>
      </trkpt>
      <trkpt lat="62.540543" lon="14.134654">
        <ele>439.091</ele>
        <time>1970-01-01T01:00:00Z</time>
      </trkpt>
      <trkpt lat="62.540544" lon="14.134468">
        <ele>439.636</ele>
        <time>1970-01-01T01:00:00Z</time>
      </trkpt>
      <trkpt lat="62.540556" lon="14.134287">
        <ele>440</ele>
        <time>1970-01-01T01:00:00Z</time>
      </trkpt>
      <trkpt lat="62.540597" lon="14.134114">
        <ele>440.364</ele>
        <time>1970-01-01T01:00:00Z</time>
      </trkpt>
      <trkpt lat="62.540653" lon="14.13398">
        <ele>440.727</ele>
        <time>1970-01-01T01:00:00Z</time>
      </trkpt>
      <trkpt lat="62.540715" lon="14.133858">
        <ele>441.091</ele>
        <time>1970-01-01T01:00:00Z</time>
      </trkpt>
      <trkpt lat="62.540786" lon="14.133722">
        <ele>441.636</ele>
        <time>1970-01-01T01:00:00Z</time>
      </trkpt>
      <trkpt lat="62.540845" lon="14.133602">
        <ele>442.182</ele>
        <time>1970-01-01T01:00:00Z</time>
      </trkpt>
      <trkpt lat="62.540906" lon="14.133442">
        <ele>442.727</ele>
        <time>1970-01-01T01:00:00Z</time>
      </trkpt>
      <trkpt lat="62.540956" lon="14.133294">
        <ele>443.273</ele>
        <time>1970-01-01T01:00:00Z</time>
      </trkpt>
      <trkpt lat="62.541" lon="14.133128">
        <ele>444.364</ele>
        <time>1970-01-01T01:00:00Z</time>
      </trkpt>
      <trkpt lat="62.541043" lon="14.132932">
        <ele>445.273</ele>
        <time>1970-01-01T01:00:00Z</time>
      </trkpt>
      <trkpt lat="62.541094" lon="14.132761">
        <ele>446.182</ele>
        <time>1970-01-01T01:00:00Z</time>
      </trkpt>
      <trkpt lat="62.541109" lon="14.132574">
        <ele>447.091</ele>
        <time>1970-01-01T01:00:00Z</time>
      </trkpt>
      <trkpt lat="62.541119" lon="14.132377">
        <ele>448</ele>
        <time>1970-01-01T01:00:00Z</time>
      </trkpt>
      <trkpt lat="62.54116" lon="14.132212">
        <ele>448.909</ele>
        <time>1970-01-01T01:00:00Z</time>
      </trkpt>
      <trkpt lat="62.541165" lon="14.132018">
        <ele>450.364</ele>
        <time>1970-01-01T01:00:00Z</time>
      </trkpt>
      <trkpt lat="62.541184" lon="14.131842">
        <ele>451.455</ele>
        <time>1970-01-01T01:00:00Z</time>
      </trkpt>
      <trkpt lat="62.541205" lon="14.131667">
        <ele>452.545</ele>
        <time>1970-01-01T01:00:00Z</time>
      </trkpt>
      <trkpt lat="62.541217" lon="14.131477">
        <ele>453.636</ele>
        <time>1970-01-01T01:00:00Z</time>
      </trkpt>
      <trkpt lat="62.541219" lon="14.131291">
        <ele>455.273</ele>
        <time>1970-01-01T01:00:00Z</time>
      </trkpt>
      <trkpt lat="62.541232" lon="14.131114">
        <ele>456.364</ele>
        <time>1970-01-01T01:00:00Z</time>
      </trkpt>
      <trkpt lat="62.541225" lon="14.130925">
        <ele>457.455</ele>
        <time>1970-01-01T01:00:00Z</time>
      </trkpt>
      <trkpt lat="62.541245" lon="14.130731">
        <ele>458.545</ele>
        <time>1970-01-01T01:00:00Z</time>
      </trkpt>
      <trkpt lat="62.54125" lon="14.13054">
        <ele>460.182</ele>
        <time>1970-01-01T01:00:00Z</time>
      </trkpt>
      <trkpt lat="62.541245" lon="14.130356">
        <ele>461.818</ele>
        <time>1970-01-01T01:00:00Z</time>
      </trkpt>
      <trkpt lat="62.54124" lon="14.130171">
        <ele>463.455</ele>
        <time>1970-01-01T01:00:00Z</time>
      </trkpt>
      <trkpt lat="62.541243" lon="14.129991">
        <ele>464.545</ele>
        <time>1970-01-01T01:00:00Z</time>
      </trkpt>
      <trkpt lat="62.541249" lon="14.129803">
        <ele>465.636</ele>
        <time>1970-01-01T01:00:00Z</time>
      </trkpt>
      <trkpt lat="62.541241" lon="14.129568">
        <ele>467.273</ele>
        <time>1970-01-01T01:00:00Z</time>
      </trkpt>
      <trkpt lat="62.541238" lon="14.129374">
        <ele>468.909</ele>
        <time>1970-01-01T01:00:00Z</time>
      </trkpt>
      <trkpt lat="62.54124" lon="14.129191">
        <ele>470</ele>
        <time>1970-01-01T01:00:00Z</time>
      </trkpt>
      <trkpt lat="62.541203" lon="14.129031">
        <ele>471.091</ele>
        <time>1970-01-01T01:00:00Z</time>
      </trkpt>
      <trkpt lat="62.541168" lon="14.128867">
        <ele>472.636</ele>
        <time>1970-01-01T01:00:00Z</time>
      </trkpt>
      <trkpt lat="62.541135" lon="14.128686">
        <ele>474.182</ele>
        <time>1970-01-01T01:00:00Z</time>
      </trkpt>
      <trkpt lat="62.541162" lon="14.128517">
        <ele>475.182</ele>
        <time>1970-01-01T01:00:00Z</time>
      </trkpt>
      <trkpt lat="62.541176" lon="14.128325">
        <ele>476.182</ele>
        <time>1970-01-01T01:00:00Z</time>
      </trkpt>
      <trkpt lat="62.541163" lon="14.128146">
        <ele>477.182</ele>
        <time>1970-01-01T01:00:00Z</time>
      </trkpt>
      <trkpt lat="62.541169" lon="14.127959">
        <ele>478.727</ele>
        <time>1970-01-01T01:00:00Z</time>
      </trkpt>
      <trkpt lat="62.541173" lon="14.12778">
        <ele>480.273</ele>
        <time>1970-01-01T01:00:00Z</time>
      </trkpt>
      <trkpt lat="62.541165" lon="14.127592">
        <ele>481.273</ele>
        <time>1970-01-01T01:00:00Z</time>
      </trkpt>
      <trkpt lat="62.541188" lon="14.127423">
        <ele>482.273</ele>
        <time>1970-01-01T01:00:00Z</time>
      </trkpt>
      <trkpt lat="62.541189" lon="14.127216">
        <ele>483.273</ele>
        <time>1970-01-01T01:00:00Z</time>
      </trkpt>
      <trkpt lat="62.541171" lon="14.127022">
        <ele>484.273</ele>
        <time>1970-01-01T01:00:00Z</time>
      </trkpt>
      <trkpt lat="62.541138" lon="14.126849">
        <ele>484.6</ele>
        <time>1970-01-01T01:00:00Z</time>
      </trkpt>
      <trkpt lat="62.541089" lon="14.126698">
        <ele>485</ele>
        <time>1970-01-01T01:00:00Z</time>
      </trkpt>
      <trkpt lat="62.541042" lon="14.126546">
        <ele>485.5</ele>
        <time>1970-01-01T01:00:00Z</time>
      </trkpt>
      <trkpt lat="62.540955" lon="14.126545">
        <ele>486.143</ele>
        <time>1970-01-01T01:00:00Z</time>
      </trkpt>
      <trkpt lat="62.540955" lon="14.126545">
        <ele>487</ele>
        <time>1970-01-01T01:00:00Z</time>
      </trkpt>
      <trkpt lat="62.540955" lon="14.126545">
        <ele>493</ele>
        <time>1970-01-01T01:00:00Z</time>
      </trkpt>
      <trkpt lat="62.540945" lon="14.12636">
        <ele>494.714</ele>
        <time>1970-01-01T01:00:00Z</time>
      </trkpt>
      <trkpt lat="62.54096" lon="14.126182">
        <ele>496</ele>
        <time>1970-01-01T01:00:00Z</time>
      </trkpt>
      <trkpt lat="62.540945" lon="14.126008">
        <ele>497</ele>
        <time>1970-01-01T01:00:00Z</time>
      </trkpt>
      <trkpt lat="62.540931" lon="14.125829">
        <ele>497.8</ele>
        <time>1970-01-01T01:00:00Z</time>
      </trkpt>
      <trkpt lat="62.540909" lon="14.125642">
        <ele>498.455</ele>
        <time>1970-01-01T01:00:00Z</time>
      </trkpt>
      <trkpt lat="62.540889" lon="14.125453">
        <ele>501</ele>
        <time>1970-01-01T01:00:00Z</time>
      </trkpt>
      <trkpt lat="62.540863" lon="14.125269">
        <ele>503.545</ele>
        <time>1970-01-01T01:00:00Z</time>
      </trkpt>
      <trkpt lat="62.540847" lon="14.125095">
        <ele>505.273</ele>
        <time>1970-01-01T01:00:00Z</time>
      </trkpt>
      <trkpt lat="62.540807" lon="14.124934">
        <ele>507</ele>
        <time>1970-01-01T01:00:00Z</time>
      </trkpt>
      <trkpt lat="62.540811" lon="14.124741">
        <ele>509.545</ele>
        <time>1970-01-01T01:00:00Z</time>
      </trkpt>
      <trkpt lat="62.540829" lon="14.124566">
        <ele>512.091</ele>
        <time>1970-01-01T01:00:00Z</time>
      </trkpt>
      <trkpt lat="62.54082" lon="14.124358">
        <ele>513.818</ele>
        <time>1970-01-01T01:00:00Z</time>
      </trkpt>
      <trkpt lat="62.540809" lon="14.124183">
        <ele>515.545</ele>
        <time>1970-01-01T01:00:00Z</time>
      </trkpt>
      <trkpt lat="62.540755" lon="14.124046">
        <ele>517.273</ele>
        <time>1970-01-01T01:00:00Z</time>
      </trkpt>
      <trkpt lat="62.540732" lon="14.123854">
        <ele>519.818</ele>
        <time>1970-01-01T01:00:00Z</time>
      </trkpt>
      <trkpt lat="62.540715" lon="14.123658">
        <ele>522.364</ele>
        <time>1970-01-01T01:00:00Z</time>
      </trkpt>
      <trkpt lat="62.540688" lon="14.123479">
        <ele>524</ele>
        <time>1970-01-01T01:00:00Z</time>
      </trkpt>
      <trkpt lat="62.540662" lon="14.123292">
        <ele>525.636</ele>
        <time>1970-01-01T01:00:00Z</time>
      </trkpt>
      <trkpt lat="62.540646" lon="14.123107">
        <ele>528</ele>
        <time>1970-01-01T01:00:00Z</time>
      </trkpt>
      <trkpt lat="62.540631" lon="14.122917">
        <ele>530.364</ele>
        <time>1970-01-01T01:00:00Z</time>
      </trkpt>
      <trkpt lat="62.54066" lon="14.122736">
        <ele>531.909</ele>
        <time>1970-01-01T01:00:00Z</time>
      </trkpt>
      <trkpt lat="62.540668" lon="14.122541">
        <ele>533.455</ele>
        <time>1970-01-01T01:00:00Z</time>
      </trkpt>
      <trkpt lat="62.540672" lon="14.122351">
        <ele>535</ele>
        <time>1970-01-01T01:00:00Z</time>
      </trkpt>
      <trkpt lat="62.540629" lon="14.122182">
        <ele>536.545</ele>
        <time>1970-01-01T01:00:00Z</time>
      </trkpt>
      <trkpt lat="62.540625" lon="14.122002">
        <ele>538.636</ele>
        <time>1970-01-01T01:00:00Z</time>
      </trkpt>
      <trkpt lat="62.540626" lon="14.121803">
        <ele>539.909</ele>
        <time>1970-01-01T01:00:00Z</time>
      </trkpt>
      <trkpt lat="62.540658" lon="14.121633">
        <ele>541.182</ele>
        <time>1970-01-01T01:00:00Z</time>
      </trkpt>
      <trkpt lat="62.540661" lon="14.121447">
        <ele>542.455</ele>
        <time>1970-01-01T01:00:00Z</time>
      </trkpt>
      <trkpt lat="62.540616" lon="14.121289">
        <ele>544.364</ele>
        <time>1970-01-01T01:00:00Z</time>
      </trkpt>
      <trkpt lat="62.540626" lon="14.121106">
        <ele>545.545</ele>
        <time>1970-01-01T01:00:00Z</time>
      </trkpt>
      <trkpt lat="62.540627" lon="14.120928">
        <ele>546.727</ele>
        <time>1970-01-01T01:00:00Z</time>
      </trkpt>
      <trkpt lat="62.540566" lon="14.120721">
        <ele>547.909</ele>
        <time>1970-01-01T01:00:00Z</time>
      </trkpt>
      <trkpt lat="62.540597" lon="14.120548">
        <ele>549.091</ele>
        <time>1970-01-01T01:00:00Z</time>
      </trkpt>
      <trkpt lat="62.540625" lon="14.120367">
        <ele>550.818</ele>
        <time>1970-01-01T01:00:00Z</time>
      </trkpt>
      <trkpt lat="62.54062" lon="14.120166">
        <ele>552.545</ele>
        <time>1970-01-01T01:00:00Z</time>
      </trkpt>
      <trkpt lat="62.540661" lon="14.120012">
        <ele>553.727</ele>
        <time>1970-01-01T01:00:00Z</time>
      </trkpt>
      <trkpt lat="62.540673" lon="14.119838">
        <ele>554.909</ele>
        <time>1970-01-01T01:00:00Z</time>
      </trkpt>
      <trkpt lat="62.54071" lon="14.11968">
        <ele>556.909</ele>
        <time>1970-01-01T01:00:00Z</time>
      </trkpt>
      <trkpt lat="62.540742" lon="14.119495">
        <ele>558.909</ele>
        <time>1970-01-01T01:00:00Z</time>
      </trkpt>
      <trkpt lat="62.54078" lon="14.119338">
        <ele>560.273</ele>
        <time>1970-01-01T01:00:00Z</time>
      </trkpt>
      <trkpt lat="62.540795" lon="14.119138">
        <ele>561.636</ele>
        <time>1970-01-01T01:00:00Z</time>
      </trkpt>
      <trkpt lat="62.540788" lon="14.118955">
        <ele>563</ele>
        <time>1970-01-01T01:00:00Z</time>
      </trkpt>
      <trkpt lat="62.540772" lon="14.118778">
        <ele>564.364</ele>
        <time>1970-01-01T01:00:00Z</time>
      </trkpt>
      <trkpt lat="62.540726" lon="14.118614">
        <ele>566.545</ele>
        <time>1970-01-01T01:00:00Z</time>
      </trkpt>
      <trkpt lat="62.540739" lon="14.118436">
        <ele>568.182</ele>
        <time>1970-01-01T01:00:00Z</time>
      </trkpt>
      <trkpt lat="62.540769" lon="14.118271">
        <ele>569.818</ele>
        <time>1970-01-01T01:00:00Z</time>
      </trkpt>
      <trkpt lat="62.540756" lon="14.118096">
        <ele>571.455</ele>
        <time>1970-01-01T01:00:00Z</time>
      </trkpt>
      <trkpt lat="62.540697" lon="14.117971">
        <ele>574.091</ele>
        <time>1970-01-01T01:00:00Z</time>
      </trkpt>
      <trkpt lat="62.540662" lon="14.117805">
        <ele>575.909</ele>
        <time>1970-01-01T01:00:00Z</time>
      </trkpt>
      <trkpt lat="62.540671" lon="14.1176">
        <ele>577.727</ele>
        <time>1970-01-01T01:00:00Z</time>
      </trkpt>
      <trkpt lat="62.540668" lon="14.117414">
        <ele>580.909</ele>
        <time>1970-01-01T01:00:00Z</time>
      </trkpt>
      <trkpt lat="62.540633" lon="14.117227">
        <ele>584.091</ele>
        <time>1970-01-01T01:00:00Z</time>
      </trkpt>
      <trkpt lat="62.54059" lon="14.117066">
        <ele>588.273</ele>
        <time>1970-01-01T01:00:00Z</time>
      </trkpt>
      <trkpt lat="62.540554" lon="14.116903">
        <ele>592.455</ele>
        <time>1970-01-01T01:00:00Z</time>
      </trkpt>
      <trkpt lat="62.540517" lon="14.116722">
        <ele>595.818</ele>
        <time>1970-01-01T01:00:00Z</time>
      </trkpt>
      <trkpt lat="62.54046" lon="14.116574">
        <ele>599.182</ele>
        <time>1970-01-01T01:00:00Z</time>
      </trkpt>
      <trkpt lat="62.540407" lon="14.116436">
        <ele>602.545</ele>
        <time>1970-01-01T01:00:00Z</time>
      </trkpt>
      <trkpt lat="62.540351" lon="14.116296">
        <ele>606.545</ele>
        <time>1970-01-01T01:00:00Z</time>
      </trkpt>
      <trkpt lat="62.54029" lon="14.11617">
        <ele>609.545</ele>
        <time>1970-01-01T01:00:00Z</time>
      </trkpt>
      <trkpt lat="62.540279" lon="14.11598">
        <ele>612.545</ele>
        <time>1970-01-01T01:00:00Z</time>
      </trkpt>
      <trkpt lat="62.540291" lon="14.115784">
        <ele>615.545</ele>
        <time>1970-01-01T01:00:00Z</time>
      </trkpt>
      <trkpt lat="62.540284" lon="14.115602">
        <ele>617.727</ele>
        <time>1970-01-01T01:00:00Z</time>
      </trkpt>
      <trkpt lat="62.540272" lon="14.115392">
        <ele>619.909</ele>
        <time>1970-01-01T01:00:00Z</time>
      </trkpt>
      <trkpt lat="62.540274" lon="14.115195">
        <ele>621.091</ele>
        <time>1970-01-01T01:00:00Z</time>
      </trkpt>
      <trkpt lat="62.540288" lon="14.115021">
        <ele>622.273</ele>
        <time>1970-01-01T01:00:00Z</time>
      </trkpt>
      <trkpt lat="62.540301" lon="14.114842">
        <ele>623.455</ele>
        <time>1970-01-01T01:00:00Z</time>
      </trkpt>
      <trkpt lat="62.540332" lon="14.114674">
        <ele>624.636</ele>
        <time>1970-01-01T01:00:00Z</time>
      </trkpt>
      <trkpt lat="62.540331" lon="14.114498">
        <ele>626.727</ele>
        <time>1970-01-01T01:00:00Z</time>
      </trkpt>
      <trkpt lat="62.540291" lon="14.114337">
        <ele>628.182</ele>
        <time>1970-01-01T01:00:00Z</time>
      </trkpt>
      <trkpt lat="62.54025" lon="14.114179">
        <ele>629.636</ele>
        <time>1970-01-01T01:00:00Z</time>
      </trkpt>
      <trkpt lat="62.540307" lon="14.114029">
        <ele>631.091</ele>
        <time>1970-01-01T01:00:00Z</time>
      </trkpt>
      <trkpt lat="62.540236" lon="14.113923">
        <ele>632.545</ele>
        <time>1970-01-01T01:00:00Z</time>
      </trkpt>
      <trkpt lat="62.540193" lon="14.113748">
        <ele>633.455</ele>
        <time>1970-01-01T01:00:00Z</time>
      </trkpt>
      <trkpt lat="62.540161" lon="14.113584">
        <ele>635.636</ele>
        <time>1970-01-01T01:00:00Z</time>
      </trkpt>
      <trkpt lat="62.540102" lon="14.113451">
        <ele>637.818</ele>
        <time>1970-01-01T01:00:00Z</time>
      </trkpt>
      <trkpt lat="62.54005" lon="14.113315">
        <ele>640</ele>
        <time>1970-01-01T01:00:00Z</time>
      </trkpt>
      <trkpt lat="62.539995" lon="14.113175">
        <ele>642.182</ele>
        <time>1970-01-01T01:00:00Z</time>
      </trkpt>
      <trkpt lat="62.539929" lon="14.113069">
        <ele>644.364</ele>
        <time>1970-01-01T01:00:00Z</time>
      </trkpt>
      <trkpt lat="62.539909" lon="14.112894">
        <ele>647.182</ele>
        <time>1970-01-01T01:00:00Z</time>
      </trkpt>
      <trkpt lat="62.539891" lon="14.112717">
        <ele>650</ele>
        <time>1970-01-01T01:00:00Z</time>
      </trkpt>
      <trkpt lat="62.539898" lon="14.112537">
        <ele>651.2</ele>
        <time>1970-01-01T01:00:00Z</time>
      </trkpt>
      <trkpt lat="62.539918" lon="14.11235">
        <ele>652.667</ele>
        <time>1970-01-01T01:00:00Z</time>
      </trkpt>
      <trkpt lat="62.539978" lon="14.112224">
        <ele>654.5</ele>
        <time>1970-01-01T01:00:00Z</time>
      </trkpt>
      <trkpt lat="62.539986" lon="14.112029">
        <ele>656.857</ele>
        <time>1970-01-01T01:00:00Z</time>
      </trkpt>
      <trkpt lat="62.540002" lon="14.111852">
        <ele>657.667</ele>
        <time>1970-01-01T01:00:00Z</time>
      </trkpt>
    </trkseg>
  </trk>
</gpx>